Location: Arezzo
(43.4170°N, 11.8830°E)
Time: 03:30:48
(UTC+02:00)

STARLINK-2647 - Pass Details

Date: 24 June 2021
Orbit: 546 x 548 km, 53.1° (Epoch: 23 July)

Event Time Altitude Azimuth Distance (km) Brightness Sun altitude
Exits shadow 02:32:18 - 118° (ESE) 2,116 6.5 -20.8°
Enters shadow 03:32:23 -68° 234° (SW) 12,420 10.4 -16.1°
Maximum altitude 04:10:39 47° 138° (SE) 727 4.2 -11.9°
